Location: ??????????
(42.1626°N, 44.1160°E)
Time: 06:13:29
(UTC+00:00)

Cosmos 1844 - Pass Details

Date: 25 June 2021
Orbit: 823 x 867 km, 70.9° (Epoch: 03 August)

Event Time Altitude Azimuth Distance (km) Brightness Sun altitude
Rises 17:33:12 0° 332° (NNW) 3,373 8.4 -8.1°
Reaches altitude 10° 17:35:39 10° 329° (NNW) 2,440 7.5 -8.4°
Maximum altitude 17:41:09 61° 250° (WSW) 946 4.1 -9.2°
Drops below altitude 10° 17:46:40 10° 172° (S) 2,449 5.6 -9.9°
Enters shadow 17:47:31 - 170° (S) 2,771 5.9 -10.0°
